TimeMST,TemperatureF,Dew PointF,Humidity,Sea Level PressureIn,VisibilityMPH,Wind Direction,Wind SpeedMPH,Gust SpeedMPH,PrecipitationIn,Events,Conditions,WindDirDegrees,DateUTC
12:56 AM,42.1,-0.9,17,29.80,10.0,NNE,3.5,-,0.00,Rain,Light Rain,20,2012-11-22 07:56:00
1:56 AM,45.0,1.9,17,29.79,10.0,North,8.1,-,0.00,Rain,Light Rain,360,2012-11-22 08:56:00
2:56 AM,46.9,1.9,16,29.80,-9999.0,NNW,8.1,-,0.00,Rain,Light Rain,340,2012-11-22 09:56:00
3:56 AM,51.1,3.9,15,29.79,10.0,North,18.4,21.9,0.00,Rain,Light Rain,350,2012-11-22 10:56:00
4:56 AM,48.0,3.9,16,29.88,-9999.0,North,4.6,-,0.00,,Clear,350,2012-11-22 11:56:00
5:56 AM,48.9,6.1,18,29.91,10.0,NW,12.7,-,0.00,Rain,Light Rain,320,2012-11-22 12:56:00
6:56 AM,48.0,8.1,20,29.94,-9999.0,NNW,10.4,-,0.00,,Clear,330,2012-11-22 13:56:00
7:56 AM,46.0,9.0,22,30.01,-9999.0,ENE,12.7,-,0.00,,Clear,60,2012-11-22 14:56:00
8:56 AM,55.0,12.0,18,30.07,10.0,North,-9999.0,-,0.00,,Clear,0,2012-11-22 15:56:00
9:56 AM,57.9,10.9,16,30.06,10.0,NNE,10.4,-,N/A,,Clear,20,2012-11-22 16:56:00
10:56 AM,59.0,10.9,15,30.04,10.0,ENE,10.4,-,N/A,,Clear,70,2012-11-22 17:56:00
11:56 AM,55.9,19.9,25,30.06,10.0,ENE,12.7,-,N/A,,Clear,60,2012-11-22 18:56:00
12:56 PM,57.0,23.0,27,30.06,10.0,ENE,13.8,-,N/A,,Clear,70,2012-11-22 19:56:00
1:56 PM,55.9,21.9,27,30.06,10.0,East,10.4,-,N/A,,Clear,100,2012-11-22 20:56:00
2:56 PM,53.1,26.1,35,30.10,10.0,North,-9999.0,-,N/A,,Clear,0,2012-11-22 21:56:00
3:56 PM,46.9,25.0,42,30.15,10.0,ENE,16.1,25.3,N/A,,Clear,60,2012-11-22 22:56:00
4:56 PM,39.9,21.9,49,30.24,10.0,North,-9999.0,-,N/A,,Clear,0,2012-11-22 23:56:00
5:56 PM,36.0,18.0,48,30.30,-9999.0,ENE,13.8,-,N/A,,Clear,70,2012-11-23 00:56:00
6:56 PM,33.1,15.1,48,30.36,-9999.0,East,10.4,-,N/A,,Clear,80,2012-11-23 01:56:00
7:56 PM,33.1,12.9,43,30.40,10.0,ENE,4.6,-,N/A,,Clear,70,2012-11-23 02:56:00
8:56 PM,30.9,12.9,47,30.42,10.0,SW,4.6,-,N/A,,Clear,220,2012-11-23 03:56:00
9:56 PM,24.1,10.9,57,30.47,10.0,West,5.8,-,0.00,,Clear,260,2012-11-23 04:56:00
10:56 PM,19.9,10.0,65,30.49,10.0,Calm,Calm,-,N/A,,Clear,0,2012-11-23 05:56:00
11:56 PM,19.0,10.0,68,30.52,10.0,Calm,Calm,-,0.00,,Clear,0,2012-11-23 06:56:00